{"data":{"norad_id":55746,"epoch":"2026-09-20T23:27:17.479296Z","epoch_age_seconds":61826,"freshness":"FRESH","line1":"1 55746U 23028F   26263.97728564  .00014936  00000+0  11546-2 0  9990","line2":"2 55746  69.9972 112.0188 0003430 276.1198  83.9571 15.01592611195296","mean_motion":15.01592611,"eccentricity":0.000343,"inclination_deg":69.9972,"raan_deg":112.0188,"arg_perigee_deg":276.1198,"mean_anomaly_deg":83.9571,"bstar":0.0011546,"rev_number":19529,"period_min":95.898181001371,"perigee_km":559.60434637672,"apogee_km":564.36526993712,"semimajor_km":6940.1218081569,"source":"CELESTRAK","updated_at":"2026-09-21T09:00:33.312217Z"}}